Regional Weather Roundup
Issued by NWS

Home | Current Version | Previous Version | Graphics & Text | Print | Product List | Glossary On
Versions: 1 2 3 4 5 6 7 8 9 10 11 12 13 14 15 16 17 18 19 20 21 22 23 24 25 26 27 28 29 30 31 32 33 34 35 36 37 38 39 40 41 42 43 44 45 46 47 48 49 50
966
ASUS45 KCYS 280010
RWRWY

WYOMING REGIONAL WEATHER ROUNDUP
NATIONAL WEATHER SERVICE CHEYENNE WY
600 PM MDT WED JUL 27 2016

NOTE:  "FAIR" INDICATES FEW OR NO CLOUDS BELOW 12,000 FEET
WITH NO SIGNIFICANT WEATHER AND/OR OBSTRUCTIONS TO VISIBILITY.

WYZ001-280100-
YELLOWSTONE NATIONAL PARK

CITY           SKY/WX    TMP DP  RH WIND       PRES   REMARKS
LK YELLOWSTONE   N/A     66  38  35 NW14G25   30.39R
6HR MIN TEMP:  66; 6HR MAX TEMP:  79;

W YELLOWSTONE  NOT AVBL

$$
WYZ002>013-054>058-071-098>099-280100-
NORTHERN WYOMING

CITY           SKY/WX    TMP DP  RH WIND       PRES   REMARKS
JACKSON        SUNNY     84  30  14 W12       30.24S
CODY           FAIR      84  45  24 NE10      30.15S
GREYBULL       FAIR      92  37  14 W7        30.03F
6HR MIN TEMP:  82; 6HR MAX TEMP:  94;

WORLAND        FAIR      90  41  18 NE7       30.05F
6HR MIN TEMP:  81; 6HR MAX TEMP:  92;

SHERIDAN       FAIR      90  47  22 N7        30.09F
6HR MIN TEMP:  82; 6HR MAX TEMP:  91;

BUFFALO        FAIR      86  49  27 N10G17    30.17S
6HR MIN TEMP:  81; 6HR MAX TEMP:  87;

GILLETTE       FAIR      75  62  64 S7        30.14R
6HR MIN TEMP:  72; 6HR MAX TEMP:  86; 6HR PCP:  0.11;

HULETT         FAIR      81  54  39 E10       30.16R
NEWCASTLE      FAIR      81  48  32 SE12G20   30.10F

$$
WYZ014>020-022>026-101>103-280100-
CENTRAL WYOMING

CITY           SKY/WX    TMP DP  RH WIND       PRES   REMARKS
BIG PINEY      FAIR      88  27  11 NW10      30.27S
6HR MIN TEMP:  79; 6HR MAX TEMP:  90;

PINEDALE       FAIR      84  28  13 NW15G21   30.29S
DUBOIS         FAIR      82  25  12 NW15G23   30.26F
LANDER         FAIR      90  38  16 N7        30.11F
6HR MIN TEMP:  81; 6HR MAX TEMP:  91;

RIVERTON       FAIR      89  36  15 NE7       30.12F
6HR MIN TEMP:  79; 6HR MAX TEMP:  89;

CASPER         FAIR      91  37  15 N8        30.13S
6HR MIN TEMP:  81; 6HR MAX TEMP:  92;

DOUGLAS          N/A    N/A N/A N/A MISG      30.11F

$$
WYZ021-027>030-104>119-280100-
SOUTHERN WYOMING

CITY           SKY/WX    TMP DP  RH WIND       PRES   REMARKS
EVANSTON       FAIR      87  18   8 W9G21     30.31S
6HR MIN TEMP:  84; 6HR MAX TEMP:  89;

KEMMERER         N/A    N/A N/A N/A W12G20    30.32S
FORT BRIDGER   FAIR      89  18   7 W21       30.32F
ROCK SPRINGS   FAIR      90  11   5 W16G25    30.23S
6HR MIN TEMP:  82; 6HR MAX TEMP:  92;

DIXON          FAIR      92  17   6 NW15G21   30.24F
RAWLINS        FAIR      88  27  11 NW10      30.24F
6HR MIN TEMP:  81; 6HR MAX TEMP:  89;

SARATOGA       FAIR      86  28  12 NW10G18   30.27S
LARAMIE        FAIR      84  22  10 N20       30.26F
6HR MIN TEMP:  80; 6HR MAX TEMP:  87;

CHEYENNE       FAIR      79  52  38 SE7       30.20F
6HR MIN TEMP:  73; 6HR MAX TEMP:  85; 6HR PCP:  0.01;

TORRINGTON     FAIR      88  51  28 E9        30.07F
6HR MIN TEMP:  80; 6HR MAX TEMP:  90;

PINE BLUFFS    TSTM      55  55 100 E22       30.18R

$$




USA.gov is the U.S. government's official web portal to all federal, state and local government web resources and services.